Vorticity
2 7 6 6 4 5 5 5 4 4 4 5 5 4 4 5 5 4 4 4 4 4 3 4 3 3 3 3 3 3 4 4 5 5 5 6 7 7 7 7 7 7 7
3 9 7 4 2 3 4 5 5 5 4 4 5 5 5 4 4 4 4 3 3 3 3 3 3 3 3 3 4 4 4 5 5 5 5 5 7 7 7 7 7 7 8
3 5 3 9 8 6 6 6 6 5 4 4 4 5 5 4 4 3 3 3 3 3 3 3 3 3 4 4 4 4 5 5 5 5 5 6 7 8 7 7 6 7 7
5 2 4 5 5 5 8 8 8 7 5 5 5 4 5 4 3 3 3 3 3 3 3 4 4 4 4 4 4 5 5 5 5 5 5 5 6 7 6 6 6 6 6
5 3 3 5 4 6 9 12 10 8 7 6 6 5 4 5 6 4 4 4 4 4 5 5 5 5 5 4 5 5 5 5 5 5 5 5 6 7 7 6 7 7 6
5 4 2 4 3 6 10 9 8 9 7 6 5 5 5 5 4 5 5 5 6 5 5 5 5 5 5 5 5 5 5 5 6 6 5 5 6 6 7 7 7 7 7
5 4 3 4 4 6 12 9 8 9 7 7 6 5 5 5 6 5 5 6 6 5 5 5 5 5 5 6 6 6 5 6 6 6 6 6 6 6 7 7 7 8 9
6 5 4 4 4 6 7 8 6 4 5 5 6 7 6 6 5 6 5 5 4 5 5 5 6 6 6 6 6 6 6 6 6 6 5 6 6 7 7 7 8 10 7
5 5 4 5 5 5 6 9 9 7 7 6 6 4 7 6 7 6 6 5 5 5 5 4 4 5 5 5 6 7 7 7 6 5 6 7 7 7 8 10 10 6 5
4 6 5 3 4 5 5 7 9 9 7 7 7 7 7 7 7 10 6 6 7 6 6 6 5 4 6 6 6 6 7 7 7 6 6 7 7 7 10 10 5 2 4
5 7 5 5 4 5 5 6 8 9 10 10 8 6 6 5 6 9 9 7 6 5 5 5 5 6 6 7 7 6 7 7 6 7 7 7 8 11 9 6 5 6 3
6 6 4 5 5 5 5 6 7 9 9 10 9 8 7 8 6 5 6 7 7 8 7 7 7 7 7 8 7 7 6 6 7 6 7 9 13 10 4 4 3 6 5
6 5 4 5 4 6 6 5 8 10 10 10 11 12 10 8 7 7 8 8 7 8 8 8 9 8 9 8 7 7 8 7 7 8 8 10 6 4 3 3 4 6 5
8 8 6 7 5 7 6 7 8 8 9 9 10 12 13 11 10 9 8 7 9 9 9 10 9 10 8 7 7 7 8 6 5 7 8 5 4 2 3 3 4 7 4
8 8 8 9 5 7 5 8 6 6 7 10 9 9 9 8 8 7 8 8 9 10 11 10 10 8 6 5 6 7 7 6 7 5 5 4 3 4 3 8 9 5 10
8 8 6 7 7 4 6 7 5 5 5 7 7 8 9 11 9 8 9 10 10 10 10 8 6 6 6 6 9 7 6 4 4 5 3 4 -1 0 8 12 6 12 7
5 5 7 -1 8 4 8 6 4 4 4 7 7 6 7 9 9 10 10 9 8 6 8 5 5 5 8 7 7 6 3 1 4 18 8 0 19 19 16 0 1 10 9
5 4 9 5 11 4 8 5 5 5 6 2 8 4 -7 3 11 11 9 7 6 5 4 3 3 3 7 8 9 4 2 5 -12 -13 -10 0 32 4 3 4 12 4 5
5 5 14 3 9 5 8 7 7 5 7 6 9 -1 3 35 6 10 7 4 4 3 2 -1 1 7 6 4 5 -2 3 -12 3 28 -7 16 8 7 0 6 29 14 4
6 4 12 5 6 5 4 7 9 10 8 7 6 -1 25 8 9 3 5 5 3 1 1 1 4 6 3 12 -9 11 6 6 -17 12 -10 13 17 19 -1 42 -8 6 3
8 6 11 8 5 5 8 7 7 10 3 -2 16 11 14 14 12 2 7 -2 -2 -1 0 3 2 4 19 2 -1 4 2 38 -24 17 -2 8 13 6 23 0 13 5 11
9 8 6 7 7 7 8 9 7 8 12 3 1 4 21 12 16 9 -2 -12 -18 0 1 5 3 8 16 -4 14 -28 8 6 10 11 2 11 12 6 2 12 11 14 10
6 7 7 7 7 7 9 6 6 11 13 12 -3 5 12 10 14 6 21 27 28 0 3 7 9 8 21 -7 14 2 -6 0 8 9 14 15 -2 11 18 13 8 9 9
6 6 6 7 6 8 9 14 4 9 3 17 8 12 16 17 11 21 18 8 3 6 1 4 11 13 -15 6 22 -7 25 -1 15 8 1 10 23 15 10 9 9 9 9
6 6 4 1 8 6 10 13 7 8 10 9 3 5 0 6 8 5 -4 -4 0 4 14 10 -3 3 25 -15 -7 47 -1 22 6 1 22 11 9 9 8 9 9 13 14
9 10 10 9 10 5 11 16 6 4 5 7 6 5 3 9 8 3 -2 -20 8 -7 33 6 37 30 11 19 19 -4 16 4 11 20 9 8 9 5 6 14 13 12 8
Height
3145 3146 3148 3150 3154 3156 3158 3160 3163 3165 3167 3170 3172 3174 3175 3176 3177 3178 3179 3180 3180 3180 3181 3181 3182 3182 3182 3182 3181 3180 3179 3178 3176 3175 3174 3172 3170 3168 3167 3164 3163 3161 3159
3141 3144 3145 3147 3150 3153 3156 3158 3161 3163 3165 3167 3171 3173 3174 3175 3176 3177 3178 3179 3180 3180 3180 3180 3180 3180 3180 3180 3179 3178 3177 3176 3174 3173 3172 3170 3168 3166 3164 3162 3160 3158 3156
3136 3140 3142 3145 3147 3150 3153 3155 3157 3160 3163 3164 3167 3170 3172 3172 3174 3176 3177 3177 3178 3178 3179 3179 3179 3178 3178 3177 3177 3176 3175 3174 3172 3171 3169 3168 3166 3163 3161 3159 3157 3155 3153
3132 3136 3138 3141 3143 3145 3148 3152 3154 3156 3160 3162 3164 3167 3169 3171 3172 3174 3175 3176 3176 3176 3176 3176 3176 3176 3176 3175 3174 3173 3172 3171 3170 3169 3167 3165 3163 3160 3158 3156 3154 3152 3150
3127 3131 3135 3138 3140 3142 3144 3147 3150 3153 3156 3159 3161 3163 3165 3168 3170 3171 3171 3172 3173 3173 3174 3174 3173 3173 3172 3172 3171 3170 3169 3168 3167 3166 3165 3163 3160 3158 3155 3153 3151 3149 3147
3121 3125 3129 3133 3135 3138 3140 3142 3146 3148 3151 3154 3156 3159 3160 3163 3165 3167 3168 3169 3170 3170 3170 3170 3170 3170 3169 3168 3168 3168 3167 3166 3165 3163 3161 3159 3157 3154 3152 3149 3147 3145 3143
3115 3120 3123 3128 3131 3134 3137 3139 3141 3144 3146 3149 3152 3154 3156 3158 3160 3162 3164 3165 3166 3167 3167 3167 3166 3166 3165 3165 3165 3164 3163 3162 3161 3159 3157 3155 3153 3150 3148 3145 3143 3141 3139
3109 3114 3118 3121 3127 3129 3130 3133 3136 3140 3142 3145 3148 3150 3152 3154 3155 3157 3159 3161 3161 3162 3163 3163 3163 3162 3162 3161 3161 3160 3159 3158 3156 3155 3152 3150 3148 3146 3144 3142 3140 3138 3136
3104 3109 3112 3115 3120 3125 3127 3130 3132 3136 3139 3142 3143 3145 3147 3150 3151 3153 3155 3155 3157 3158 3158 3158 3158 3158 3158 3157 3157 3156 3154 3153 3152 3150 3147 3145 3144 3142 3140 3138 3136 3135 3133
3096 3102 3106 3110 3114 3120 3122 3125 3128 3130 3132 3135 3138 3140 3143 3145 3147 3148 3150 3151 3152 3153 3153 3154 3154 3153 3153 3152 3151 3150 3149 3148 3146 3144 3142 3141 3139 3136 3135 3134 3132 3129 3127
3089 3096 3100 3104 3109 3113 3117 3119 3123 3125 3127 3129 3132 3134 3137 3140 3143 3144 3145 3146 3147 3148 3148 3149 3149 3148 3148 3147 3146 3144 3143 3142 3141 3139 3137 3135 3133 3132 3130 3128 3126 3124 3121
3082 3088 3093 3098 3104 3108 3112 3115 3117 3119 3121 3124 3126 3129 3132 3133 3137 3138 3139 3140 3141 3142 3142 3143 3143 3142 3141 3141 3140 3139 3138 3137 3135 3133 3131 3129 3128 3126 3124 3122 3120 3117 3114
3073 3082 3087 3092 3097 3102 3106 3109 3111 3113 3116 3117 3120 3123 3125 3127 3129 3131 3133 3134 3134 3136 3137 3137 3137 3137 3136 3135 3134 3133 3132 3130 3129 3127 3125 3124 3122 3119 3117 3115 3113 3110 3107
3070 3077 3082 3086 3092 3096 3100 3103 3105 3107 3110 3112 3114 3116 3119 3121 3122 3125 3127 3127 3128 3129 3130 3131 3130 3131 3130 3129 3128 3127 3125 3124 3123 3122 3120 3119 3116 3113 3111 3108 3106 3102 3098
3063 3070 3075 3080 3085 3089 3094 3096 3099 3101 3104 3106 3109 3110 3114 3115 3116 3118 3120 3121 3122 3123 3124 3126 3125 3124 3124 3123 3122 3121 3120 3117 3117 3115 3114 3112 3109 3107 3103 3101 3098 3095 3091
3055 3062 3068 3073 3078 3083 3087 3091 3094 3096 3099 3101 3103 3105 3107 3109 3111 3111 3113 3114 3115 3117 3119 3122 3120 3119 3118 3117 3115 3114 3113 3112 3110 3109 3107 3105 3102 3097 3094 3091 3089 3086 3083
3048 3054 3061 3066 3072 3076 3081 3084 3087 3090 3093 3095 3097 3100 3102 3103 3105 3106 3108 3109 3110 3111 3113 3115 3115 3114 3112 3110 3109 3107 3106 3105 3103 3102 3099 3096 3093 3089 3084 3082 3080 3077 3074
3042 3049 3054 3059 3064 3069 3074 3078 3081 3083 3086 3088 3091 3093 3097 3098 3099 3101 3102 3103 3105 3106 3108 3110 3109 3109 3108 3105 3104 3101 3098 3097 3094 3093 3091 3088 3085 3081 3078 3075 3072 3069 3064
3036 3041 3046 3052 3058 3063 3066 3070 3073 3075 3078 3082 3085 3087 3090 3089 3094 3096 3097 3098 3099 3099 3099 3101 3101 3102 3101 3099 3097 3095 3092 3090 3088 3084 3080 3078 3075 3073 3069 3065 3062 3057 3052
3029 3034 3040 3046 3051 3055 3059 3063 3064 3068 3071 3075 3077 3080 3079 3083 3086 3090 3091 3092 3091 3091 3092 3091 3092 3093 3092 3091 3090 3087 3085 3082 3078 3077 3073 3070 3066 3061 3060 3055 3052 3047 3043
3022 3028 3033 3039 3043 3046 3050 3054 3057 3060 3063 3066 3068 3071 3072 3076 3079 3082 3083 3084 3083 3084 3083 3083 3082 3083 3083 3081 3080 3078 3076 3073 3068 3069 3065 3061 3057 3052 3049 3045 3041 3037 3031
3015 3021 3025 3031 3034 3038 3043 3047 3050 3053 3056 3058 3059 3063 3065 3068 3069 3071 3072 3072 3075 3076 3076 3075 3074 3073 3070 3069 3069 3066 3066 3064 3061 3060 3056 3051 3047 3042 3039 3034 3029 3026 3021
3008 3014 3019 3022 3026 3031 3036 3039 3043 3045 3047 3050 3053 3055 3056 3058 3060 3060 3062 3064 3065 3067 3067 3066 3065 3064 3061 3058 3058 3058 3054 3054 3051 3047 3045 3042 3039 3033 3028 3025 3020 3014 3010
2999 3005 3010 3014 3018 3023 3028 3032 3034 3036 3038 3041 3045 3046 3047 3049 3050 3053 3055 3056 3058 3058 3056 3057 3055 3055 3052 3051 3047 3047 3045 3042 3040 3037 3036 3032 3028 3023 3018 3016 3011 3005 3000
2989 2994 3000 3005 3009 3015 3019 3022 3025 3027 3028 3032 3035 3037 3039 3041 3043 3044 3047 3046 3046 3046 3045 3043 3045 3043 3040 3038 3039 3035 3033 3030 3027 3026 3024 3021 3018 3015 3011 3008 3003 2997 2991
2981 2986 2991 2996 3001 3005 3009 3012 3016 3018 3021 3024 3028 3029 3031 3032 3034 3036 3037 3036 3036 3035 3032 3031 3029 3028 3030 3029 3026 3024 3022 3020 3018 3015 3013 3011 3008 3004 3001 2999 2994 2988 2983